EZY23WU LEMG-EGGP

Flight info

Callsign EZY23WU
Flight time 2h 25m
Altitude 36000
Route BLN DCT MORAL DCT BEXID DCT VTB DCT SIE DCT XERMA DCT ARLUN DCT BUGIX DCT UNGAS DCT DELOG DCT NOZHU DCT SHIRI DCT TOJAQ DCT EPACE DCT ACCOP P16 PEPZE
Aircraft A320/M-SDE2E3FGHIJ1RWXYZ/LB1

Departure

Time 2026-05-04 09:31
Airport Málaga-Costa del Sol Airport (LEMG)

Arrival

Time 2026-05-04 11:56
Airport Liverpool John Lennon Airport (EGGP)
Time Latitude Longitude Altitude Speed Heading
2026-05-04 09:14 36.67456 -4.49208 42 ft 0 kts 331°
2026-05-04 09:17 36.67431 -4.49143 42 ft 0 kts 221°
2026-05-04 09:20 36.67430 -4.49144 42 ft 1 kts 221°
2026-05-04 09:21 36.67412 -4.49164 41 ft 6 kts 221°
2026-05-04 09:21 36.67372 -4.49209 42 ft 9 kts 222°
2026-05-04 09:21 36.67315 -4.49242 42 ft 10 kts 196°
2026-05-04 09:21 36.67274 -4.49302 42 ft 10 kts 278°
2026-05-04 09:22 36.67318 -4.49372 42 ft 11 kts 311°
2026-05-04 09:22 36.67384 -4.49466 43 ft 17 kts 311°
2026-05-04 09:22 36.67471 -4.49588 42 ft 20 kts 311°
2026-05-04 09:22 36.67562 -4.49716 43 ft 20 kts 312°
2026-05-04 09:23 36.67649 -4.49837 43 ft 17 kts 311°
2026-05-04 09:23 36.67712 -4.49895 43 ft 11 kts
2026-05-04 09:23 36.67788 -4.49852 42 ft 13 kts 23°
2026-05-04 09:23 36.67861 -4.49784 42 ft 14 kts 41°
2026-05-04 09:25 36.68223 -4.49124 37 ft 16 kts 118°
2026-05-04 09:25 36.68171 -4.49001 40 ft 16 kts 118°
2026-05-04 09:26 36.68121 -4.48879 38 ft 15 kts 117°
2026-05-04 09:26 36.68076 -4.48771 38 ft 13 kts 117°
2026-05-04 09:26 36.68035 -4.48674 39 ft 12 kts 118°
2026-05-04 09:26 36.67998 -4.48587 40 ft 11 kts 118°
2026-05-04 09:27 36.67964 -4.48508 40 ft 10 kts 118°
2026-05-04 09:27 36.67934 -4.48437 40 ft 9 kts 117°
2026-05-04 09:27 36.67907 -4.48374 39 ft 8 kts 117°
2026-05-04 09:27 36.67877 -4.48300 39 ft 10 kts 116°
2026-05-04 09:28 36.67846 -4.48225 36 ft 10 kts 118°
2026-05-04 09:28 36.67815 -4.48151 37 ft 9 kts 116°
2026-05-04 09:28 36.67830 -4.48083 35 ft 9 kts 43°
2026-05-04 09:28 36.67881 -4.48049 36 ft 7 kts 26°
2026-05-04 09:29 36.67914 -4.48029 37 ft 4 kts 26°
2026-05-04 09:29 36.67945 -4.48028 37 ft 6 kts 327°
2026-05-04 09:29 36.67964 -4.48067 38 ft 0 kts 297°
2026-05-04 09:29 36.67966 -4.48071 38 ft 0 kts 297°
2026-05-04 09:30 36.67987 -4.48123 38 ft 30 kts 298°
2026-05-04 09:30 36.68206 -4.48642 40 ft 101 kts 297°
2026-05-04 09:30 36.68622 -4.49633 50 ft 155 kts 297°
2026-05-04 09:30 36.69131 -4.50844 600 ft 157 kts 296°
2026-05-04 09:31 36.69775 -4.51959 1250 ft 160 kts 314°
2026-05-04 09:31 36.70557 -4.52956 1942 ft 165 kts 314°
2026-05-04 09:31 36.71405 -4.54063 2313 ft 188 kts 314°
2026-05-04 09:31 36.72357 -4.55313 2716 ft 208 kts 313°
2026-05-04 09:32 36.73358 -4.56631 3402 ft 214 kts 313°
2026-05-04 09:32 36.74384 -4.57980 4158 ft 216 kts 313°
2026-05-04 09:34 36.84662 -4.58112 8478 ft 279 kts 39°
2026-05-04 09:34 36.86128 -4.56473 9135 ft 286 kts 39°
2026-05-04 09:34 36.87633 -4.54805 9785 ft 293 kts 38°
2026-05-04 09:34 36.89177 -4.53102 10380 ft 298 kts 38°
2026-05-04 09:35 36.90744 -4.51378 11027 ft 302 kts 38°
2026-05-04 09:35 36.92329 -4.49637 11683 ft 305 kts 38°
2026-05-04 09:35 36.93933 -4.47874 12354 ft 309 kts 38°
2026-05-04 09:35 36.95553 -4.46087 13002 ft 313 kts 38°
2026-05-04 09:37 37.09795 -4.34017 15513 ft 395 kts 29°
2026-05-04 09:37 37.12091 -4.32188 16063 ft 398 kts 29°
2026-05-04 09:38 37.14437 -4.30315 16619 ft 402 kts 29°
2026-05-04 09:38 37.16804 -4.28418 17175 ft 405 kts 29°
2026-05-04 09:38 37.19190 -4.26506 17724 ft 409 kts 29°
2026-05-04 09:38 37.21600 -4.24576 18259 ft 413 kts 28°
2026-05-04 09:39 37.24033 -4.22630 18724 ft 417 kts 28°
2026-05-04 09:39 37.26491 -4.20669 19212 ft 420 kts 29°
2026-05-04 09:39 37.28966 -4.18693 19690 ft 424 kts 28°
2026-05-04 09:39 37.31463 -4.16693 20167 ft 427 kts 28°
2026-05-04 09:40 37.33979 -4.14675 20628 ft 431 kts 28°
2026-05-04 09:40 37.35658 -4.13329 20939 ft 433 kts 28°
2026-05-04 09:40 37.38210 -4.11279 21393 ft 437 kts 28°
2026-05-04 09:40 37.40780 -4.09211 21850 ft 441 kts 28°
2026-05-04 09:41 37.43373 -4.07124 22318 ft 444 kts 28°
2026-05-04 09:42 37.62064 -3.92064 25040 ft 466 kts 28°
2026-05-04 09:43 37.64800 -3.89849 25369 ft 469 kts 28°
2026-05-04 09:43 37.67553 -3.87617 25703 ft 472 kts 28°
2026-05-04 09:43 37.70324 -3.85370 26015 ft 474 kts 28°
2026-05-04 09:43 37.73106 -3.83111 26356 ft 477 kts 28°
2026-05-04 09:44 37.75894 -3.80842 26639 ft 479 kts 28°
2026-05-04 09:44 37.78666 -3.78586 26909 ft 482 kts 28°
2026-05-04 09:44 37.81494 -3.76303 27207 ft 483 kts 25°
2026-05-04 09:46 38.03646 -3.66938 29212 ft 487 kts 10°
2026-05-04 09:46 38.06897 -3.65690 29489 ft 489 kts 10°
2026-05-04 09:46 38.10162 -3.64434 29752 ft 491 kts 10°
2026-05-04 09:47 38.13442 -3.63187 30020 ft 492 kts
2026-05-04 09:47 38.16771 -3.62349 30235 ft 484 kts 359°
2026-05-04 09:49 38.40220 -3.60059 32074 ft 482 kts 356°
2026-05-04 09:49 38.43611 -3.59727 32363 ft 482 kts 356°
2026-05-04 09:49 38.46908 -3.59405 32627 ft 481 kts 357°
2026-05-04 09:51 38.66867 -3.57472 34281 ft 478 kts 356°
2026-05-04 09:51 38.70179 -3.57151 34507 ft 477 kts 356°
2026-05-04 09:51 38.73489 -3.56826 34724 ft 477 kts 356°
2026-05-04 09:51 38.76800 -3.56502 34939 ft 477 kts 356°
2026-05-04 09:52 38.80107 -3.56177 35130 ft 476 kts 356°
2026-05-04 09:52 38.83411 -3.55849 35336 ft 476 kts 356°
2026-05-04 09:52 38.86711 -3.55523 35530 ft 476 kts 356°
2026-05-04 09:52 38.90012 -3.55200 35716 ft 476 kts 356°
2026-05-04 09:53 38.93311 -3.54880 35905 ft 475 kts 356°
2026-05-04 09:53 38.99893 -3.54228 36014 ft 473 kts 357°
2026-05-04 09:54 39.06451 -3.53570 36010 ft 472 kts 357°
2026-05-04 09:54 39.12964 -3.52920 36015 ft 473 kts 356°
2026-05-04 09:55 39.19521 -3.52274 36008 ft 473 kts 356°
2026-05-04 09:55 39.26084 -3.51624 36016 ft 473 kts 357°
2026-05-04 09:56 39.32647 -3.50962 36030 ft 473 kts 357°
2026-05-04 09:56 39.39220 -3.50302 36026 ft 474 kts 357°
2026-05-04 09:57 39.45792 -3.49652 36021 ft 474 kts 357°
2026-05-04 09:57 39.52370 -3.48986 36020 ft 474 kts 357°
2026-05-04 09:58 39.58955 -3.48317 36022 ft 475 kts 357°
2026-05-04 09:58 39.65541 -3.47657 36022 ft 475 kts 357°
2026-05-04 10:00 39.91624 -3.47767 36019 ft 467 kts 348°
2026-05-04 10:04 40.37025 -3.52378 36002 ft 469 kts 348°
2026-05-04 10:04 40.43530 -3.53040 36010 ft 469 kts 348°
2026-05-04 10:05 40.50045 -3.53707 36022 ft 469 kts 348°
2026-05-04 10:05 40.56559 -3.54382 36023 ft 470 kts 348°
2026-05-04 10:06 40.63076 -3.55053 36021 ft 470 kts 349°
2026-05-04 10:06 40.69599 -3.55721 36017 ft 470 kts 349°
2026-05-04 10:08 40.92418 -3.58090 36020 ft 470 kts 349°
2026-05-04 10:08 40.98899 -3.58759 36024 ft 470 kts 349°
2026-05-04 10:09 41.05419 -3.59437 36031 ft 470 kts 349°
2026-05-04 10:09 41.11938 -3.60119 36028 ft 470 kts 349°
2026-05-04 10:10 41.18474 -3.60712 36032 ft 472 kts 352°
2026-05-04 10:10 41.25047 -3.60886 36033 ft 473 kts 354°
2026-05-04 10:11 41.31634 -3.60908 36034 ft 473 kts 354°
2026-05-04 10:11 41.38212 -3.61007 36039 ft 472 kts 353°
2026-05-04 10:12 41.44780 -3.61182 36040 ft 472 kts 353°
2026-05-04 10:12 41.51346 -3.61371 36040 ft 472 kts 354°
2026-05-04 10:13 41.57921 -3.61427 36040 ft 473 kts 355°
2026-05-04 10:13 41.64505 -3.61379 36037 ft 473 kts 355°
2026-05-04 10:14 41.71088 -3.61351 36039 ft 473 kts 355°
2026-05-04 10:16 41.97356 -3.61351 36043 ft 473 kts 355°
2026-05-04 10:16 42.03937 -3.61375 36040 ft 472 kts 354°
2026-05-04 10:17 42.10488 -3.61738 36042 ft 471 kts 352°
2026-05-04 10:19 42.36657 -3.63685 36047 ft 468 kts 347°
2026-05-04 10:19 42.43089 -3.64952 36046 ft 467 kts 346°
2026-05-04 10:20 42.49512 -3.66251 36052 ft 467 kts 346°
2026-05-04 10:20 42.55935 -3.67536 36049 ft 467 kts 347°
2026-05-04 10:21 42.62366 -3.68807 36053 ft 467 kts 347°
2026-05-04 10:21 42.68790 -3.70085 36057 ft 467 kts 347°
2026-05-04 10:22 42.78462 -3.71784 36063 ft 467 kts 348°
2026-05-04 10:23 42.84922 -3.72835 36071 ft 467 kts 348°
2026-05-04 10:25 43.10672 -3.77245 36077 ft 467 kts 348°
2026-05-04 10:25 43.17123 -3.78356 36072 ft 467 kts 348°
2026-05-04 10:26 43.23574 -3.79471 36073 ft 467 kts 348°
2026-05-04 10:26 43.30024 -3.80585 36068 ft 467 kts 348°
2026-05-04 10:27 43.36477 -3.81709 36067 ft 467 kts 348°
2026-05-04 10:27 43.42927 -3.82838 36067 ft 468 kts 348°
2026-05-04 10:28 43.49342 -3.83956 36072 ft 468 kts 348°
2026-05-04 10:28 43.55841 -3.85088 36072 ft 468 kts 348°
2026-05-04 10:29 43.62251 -3.86202 36074 ft 468 kts 348°
2026-05-04 10:29 43.68706 -3.87335 36066 ft 467 kts 348°
2026-05-04 10:30 43.75158 -3.88474 36062 ft 467 kts 348°
2026-05-04 10:30 43.81610 -3.89611 36057 ft 467 kts 348°
2026-05-04 10:31 43.88065 -3.90760 36057 ft 467 kts 348°
2026-05-04 10:32 44.10615 -3.94765 36055 ft 468 kts 348°
2026-05-04 10:33 44.17070 -3.95918 36054 ft 468 kts 348°
2026-05-04 10:33 44.23529 -3.97068 36062 ft 468 kts 348°
2026-05-04 10:34 44.29987 -3.98223 36048 ft 468 kts 348°
2026-05-04 10:34 44.36511 -3.98635 36052 ft 472 kts 358°
2026-05-04 10:35 44.43082 -3.98369 36042 ft 472 kts 358°
2026-05-04 10:35 44.49655 -3.98107 36043 ft 472 kts 358°
2026-05-04 10:36 44.56227 -3.97862 36055 ft 472 kts 358°
2026-05-04 10:36 44.62755 -3.97616 36053 ft 472 kts 358°
2026-05-04 10:37 44.69326 -3.97363 36043 ft 472 kts 358°
2026-05-04 10:37 44.75897 -3.97118 36041 ft 472 kts 358°
2026-05-04 10:39 44.97781 -3.96276 36041 ft 472 kts 358°
2026-05-04 10:40 45.04343 -3.96025 36041 ft 472 kts 358°
2026-05-04 10:40 45.10910 -3.95776 36038 ft 472 kts 358°
2026-05-04 10:41 45.17472 -3.95514 36040 ft 472 kts 358°
2026-05-04 10:41 45.24035 -3.95256 36041 ft 472 kts 358°
2026-05-04 10:42 45.30595 -3.95004 36039 ft 472 kts 358°
2026-05-04 10:42 45.37154 -3.94749 36037 ft 471 kts 359°
2026-05-04 10:43 45.43711 -3.94496 36036 ft 471 kts 358°
2026-05-04 10:45 45.69892 -3.93474 36032 ft 471 kts 359°
2026-05-04 10:45 45.76450 -3.93216 36030 ft 471 kts 359°
2026-05-04 10:46 45.83004 -3.92952 36032 ft 471 kts 359°
2026-05-04 10:46 45.89515 -3.92698 36033 ft 471 kts 359°
2026-05-04 10:47 45.96069 -3.92438 36034 ft 471 kts 359°
2026-05-04 10:47 46.02621 -3.92165 36029 ft 471 kts 359°
2026-05-04 10:49 46.28834 -3.91130 36028 ft 471 kts 359°
2026-05-04 10:50 46.35385 -3.90874 36030 ft 471 kts 359°
2026-05-04 10:52 46.61585 -3.89797 36027 ft 471 kts 359°
2026-05-04 10:52 46.68133 -3.89519 36024 ft 471 kts 359°
2026-05-04 10:54 46.94271 -3.88460 36024 ft 470 kts 359°
2026-05-04 10:56 47.20436 -3.87347 36017 ft 470 kts 359°
2026-05-04 10:57 47.26981 -3.87077 36017 ft 470 kts 359°
2026-05-04 10:57 47.33520 -3.86810 36013 ft 470 kts 359°
2026-05-04 10:58 47.40055 -3.86542 36013 ft 470 kts 359°
2026-05-04 10:58 47.46595 -3.86258 36015 ft 470 kts 359°
2026-05-04 10:59 47.53129 -3.85987 36013 ft 470 kts 359°
2026-05-04 10:59 47.59661 -3.85721 36014 ft 470 kts 359°
2026-05-04 11:00 47.66195 -3.85440 36010 ft 470 kts 359°
2026-05-04 11:02 47.92266 -3.84333 36006 ft 469 kts 359°
2026-05-04 11:05 48.41132 -3.82208 36014 ft 468 kts 359°
2026-05-04 11:06 48.47630 -3.81924 36016 ft 467 kts 359°
2026-05-04 11:06 48.54131 -3.81642 36016 ft 467 kts 359°
2026-05-04 11:10 48.99464 -3.79625 36029 ft 465 kts 360°
2026-05-04 11:12 49.25298 -3.78469 36034 ft 465 kts
2026-05-04 11:12 49.31766 -3.78174 36033 ft 465 kts
2026-05-04 11:13 49.38225 -3.77876 36032 ft 465 kts
2026-05-04 11:13 49.44686 -3.77584 36031 ft 464 kts
2026-05-04 11:14 49.51146 -3.77297 36032 ft 464 kts
2026-05-04 11:16 49.76890 -3.75754 36038 ft 464 kts
2026-05-04 11:16 49.83313 -3.74878 36032 ft 463 kts
2026-05-04 11:17 49.89738 -3.74036 36034 ft 463 kts
2026-05-04 11:19 50.15403 -3.71009 36037 ft 462 kts
2026-05-04 11:19 50.21764 -3.70242 36037 ft 461 kts
2026-05-04 11:20 50.28160 -3.69470 36032 ft 461 kts
2026-05-04 11:20 50.34555 -3.68707 36039 ft 460 kts
2026-05-04 11:22 50.59979 -3.64325 36041 ft 459 kts
2026-05-04 11:23 50.66314 -3.63109 36042 ft 458 kts
2026-05-04 11:24 50.85277 -3.59497 35593 ft 455 kts
2026-05-04 11:25 50.88409 -3.58893 35352 ft 453 kts
2026-05-04 11:25 50.91530 -3.58289 35109 ft 451 kts
2026-05-04 11:25 50.94633 -3.57688 34877 ft 448 kts
2026-05-04 11:26 51.00791 -3.56489 34399 ft 444 kts
2026-05-04 11:27 51.21904 -3.52380 32563 ft 430 kts
2026-05-04 11:28 51.24870 -3.51799 32300 ft 428 kts
2026-05-04 11:28 51.27821 -3.51216 32042 ft 427 kts
2026-05-04 11:28 51.30757 -3.50636 31715 ft 421 kts
2026-05-04 11:28 51.33640 -3.50068 31461 ft 414 kts
2026-05-04 11:29 51.36487 -3.49506 31216 ft 411 kts
2026-05-04 11:29 51.39316 -3.48948 30956 ft 409 kts
2026-05-04 11:29 51.42132 -3.48393 30703 ft 407 kts
2026-05-04 11:29 51.44934 -3.47839 30458 ft 405 kts
2026-05-04 11:31 51.64144 -3.44020 28519 ft 391 kts
2026-05-04 11:33 51.82743 -3.40305 26645 ft 379 kts
2026-05-04 11:33 51.84471 -3.39956 26475 ft 378 kts
2026-05-04 11:33 51.87068 -3.39428 26218 ft 377 kts
2026-05-04 11:34 51.89668 -3.38898 25964 ft 375 kts
2026-05-04 11:34 51.92254 -3.38376 25716 ft 373 kts
2026-05-04 11:34 51.94835 -3.37957 25462 ft 372 kts
2026-05-04 11:34 51.97416 -3.37710 25212 ft 371 kts
2026-05-04 11:35 51.99992 -3.37558 24967 ft 370 kts
2026-05-04 11:35 52.02560 -3.37442 24726 ft 368 kts
2026-05-04 11:35 52.05117 -3.37320 24487 ft 367 kts
2026-05-04 11:35 52.07662 -3.37176 24245 ft 366 kts
2026-05-04 11:36 52.10199 -3.37015 24010 ft 364 kts
2026-05-04 11:36 52.12728 -3.36838 23771 ft 363 kts
2026-05-04 11:36 52.15249 -3.36647 23523 ft 362 kts
2026-05-04 11:36 52.17758 -3.36454 23243 ft 360 kts
2026-05-04 11:37 52.20255 -3.36264 22964 ft 358 kts
2026-05-04 11:37 52.22705 -3.36081 22697 ft 356 kts
2026-05-04 11:37 52.25177 -3.35901 22420 ft 355 kts
2026-05-04 11:37 52.27635 -3.35724 22153 ft 353 kts
2026-05-04 11:38 52.30083 -3.35545 21887 ft 351 kts
2026-05-04 11:38 52.32520 -3.35368 21619 ft 350 kts
2026-05-04 11:38 52.34948 -3.35194 21357 ft 349 kts
2026-05-04 11:38 52.37368 -3.35024 21099 ft 347 kts
2026-05-04 11:39 52.39777 -3.34852 20838 ft 346 kts
2026-05-04 11:39 52.42178 -3.34677 20583 ft 345 kts
2026-05-04 11:40 52.56413 -3.33625 19088 ft 337 kts
2026-05-04 11:41 52.58737 -3.33450 18788 ft 333 kts
2026-05-04 11:41 52.61049 -3.33272 18401 ft 332 kts
2026-05-04 11:41 52.63339 -3.32791 17969 ft 332 kts 14°
2026-05-04 11:41 52.65542 -3.31624 17406 ft 335 kts 20°
2026-05-04 11:42 52.67744 -3.30310 16867 ft 338 kts 20°
2026-05-04 11:42 52.69967 -3.28975 16324 ft 342 kts 20°
2026-05-04 11:42 52.72209 -3.27629 15779 ft 345 kts 20°
2026-05-04 11:42 52.74456 -3.26283 15412 ft 342 kts 20°
2026-05-04 11:43 52.76682 -3.24953 15026 ft 339 kts 20°
2026-05-04 11:43 52.78900 -3.23627 14630 ft 338 kts 20°
2026-05-04 11:43 52.81104 -3.22309 14242 ft 336 kts 20°
2026-05-04 11:43 52.83294 -3.20994 13869 ft 334 kts 20°
2026-05-04 11:44 52.85473 -3.19688 13446 ft 332 kts 20°
2026-05-04 11:44 52.87640 -3.18387 13021 ft 330 kts 20°
2026-05-04 11:44 52.89847 -3.17405 12610 ft 328 kts
2026-05-04 11:44 52.92081 -3.17166 12205 ft 325 kts
2026-05-04 11:45 52.94336 -3.16996 11804 ft 323 kts
2026-05-04 11:45 52.96569 -3.16823 11501 ft 317 kts
2026-05-04 11:45 52.98764 -3.16653 11379 ft 306 kts
2026-05-04 11:45 53.00865 -3.16488 11142 ft 300 kts
2026-05-04 11:46 53.02910 -3.16330 10820 ft 297 kts
2026-05-04 11:46 53.04964 -3.16171 10493 ft 294 kts
2026-05-04 11:46 53.06999 -3.16008 10155 ft 292 kts
2026-05-04 11:46 53.09020 -3.15846 9806 ft 289 kts
2026-05-04 11:47 53.11024 -3.15688 9427 ft 287 kts
2026-05-04 11:47 53.13028 -3.15530 8782 ft 293 kts
2026-05-04 11:47 53.15101 -3.15368 7978 ft 304 kts
2026-05-04 11:47 53.17256 -3.15199 7160 ft 315 kts
2026-05-04 11:48 53.19474 -3.15020 6313 ft 323 kts
2026-05-04 11:48 53.21742 -3.14740 5467 ft 330 kts
2026-05-04 11:48 53.24016 -3.14370 4930 ft 325 kts
2026-05-04 11:48 53.26244 -3.13970 4401 ft 318 kts
2026-05-04 11:49 53.28379 -3.13579 3911 ft 299 kts
2026-05-04 11:49 53.30381 -3.13222 3561 ft 278 kts
2026-05-04 11:49 53.32186 -3.12922 3655 ft 244 kts
2026-05-04 11:49 53.33799 -3.12673 3746 ft 227 kts
2026-05-04 11:50 53.35304 -3.13220 3851 ft 219 kts 329°
2026-05-04 11:50 53.36323 -3.14971 3739 ft 210 kts 295°
2026-05-04 11:50 53.36522 -3.17303 3615 ft 201 kts 257°
2026-05-04 11:50 53.35863 -3.19267 3407 ft 194 kts 218°
2026-05-04 11:51 53.34651 -3.20083 3150 ft 189 kts 178°
2026-05-04 11:51 53.33442 -3.19426 2892 ft 184 kts 141°
2026-05-04 11:51 53.32561 -3.17884 2637 ft 184 kts 121°
2026-05-04 11:51 53.32065 -3.15941 2518 ft 183 kts 101°
2026-05-04 11:52 53.31990 -3.13831 2506 ft 183 kts 84°
2026-05-04 11:52 53.32095 -3.11711 2523 ft 182 kts 84°
2026-05-04 11:52 53.32198 -3.09596 2525 ft 180 kts 85°
2026-05-04 11:52 53.32295 -3.07591 2487 ft 169 kts 85°
2026-05-04 11:53 53.32388 -3.05662 2337 ft 165 kts 84°
2026-05-04 11:53 53.32480 -3.03757 2140 ft 163 kts 84°
2026-05-04 11:53 53.32570 -3.01870 1928 ft 162 kts 84°
2026-05-04 11:53 53.32659 -3.00003 1703 ft 158 kts 84°
2026-05-04 11:55 53.33223 -2.88004 277 ft 146 kts 85°
2026-05-04 11:55 53.33301 -2.86317 104 ft 145 kts 85°
2026-05-04 11:56 53.33370 -2.84823 89 ft 105 kts 85°
2026-05-04 11:56 53.33413 -2.83901 92 ft 43 kts 86°
2026-05-04 11:56 53.33426 -2.83648 92 ft 10 kts 71°
2026-05-04 11:56 53.33482 -2.83630 91 ft 8 kts 349°
2026-05-04 11:57 53.33529 -2.83635 90 ft 6 kts 358°
2026-05-04 11:57 53.33566 -2.83641 90 ft 5 kts 345°
2026-05-04 11:57 53.33588 -2.83691 90 ft 7 kts 283°
2026-05-04 11:57 53.33586 -2.83766 89 ft 8 kts 266°
2026-05-04 11:58 53.33581 -2.83877 89 ft 11 kts 266°
2026-05-04 11:58 53.33575 -2.84019 89 ft 13 kts 265°
2026-05-04 11:58 53.33567 -2.84181 93 ft 15 kts 265°
2026-05-04 11:58 53.33558 -2.84371 89 ft 17 kts 265°
2026-05-04 11:59 53.33548 -2.84580 89 ft 19 kts 264°
2026-05-04 11:59 53.33538 -2.84807 90 ft 20 kts 266°
2026-05-04 11:59 53.33529 -2.84993 89 ft 11 kts 265°
2026-05-04 11:59 53.33565 -2.85064 90 ft 8 kts 343°
2026-05-04 12:00 53.33589 -2.85114 89 ft 6 kts 269°
2026-05-04 12:00 53.33586 -2.85174 89 ft 0 kts 265°
2026-05-04 12:00 53.33586 -2.85185 89 ft 2 kts 265°
2026-05-04 12:00 53.33586 -2.85190 89 ft 0 kts 265°